Location: İstanbul
(41.0082°N, 28.9784°E)
Time: 03:23:38
(UTC+03:00)

DOVE 4 - Pass Details

Date: 03 May 2024
Orbit: 582 x 778 km, 97.7° (Epoch: 28 May)

Event Time Altitude Azimuth Distance (km) Brightness Sun altitude
Rises 23:28:23 0° 1° (N) 2,999 ? -29.1°
Reaches altitude 10° 23:30:44 10° 352° (N) 2,115 ? -29.3°
Maximum altitude 23:34:50 32° 290° (WNW) 1,197 ? -29.6°
Enters shadow 23:35:32 30° 272° (W) 1,242 ? -29.6°
